GSAT0212 (GALILEO 16)

Last updated on Fri Jun 19 2026 17:09:21 GMT+0000 (Coordinated Universal Time)

1 41860U 16069B 26169.94520460 -.00000012 00000+0 00000+0 0 9997 2 41860 55.4975 101.0327 0004607 1.4092 358.5693 1.70473680 59686
UTC large
Height (km)
Speed (km/s)
/
Latitude / Longitude
Inclination (degrees)
Orbital Period (minutes)
Azimuth
Elevation
Range (km)
Doppler Factor

Next 0 passes for location: London (51.5072 / 0.1276)

No passes found over London.
GSAT0212 (GALILEO 16)